Location: ??????
(41.3164°N, 22.6615°E)
Time: 10:10:38
(UTC+00:00)

Tiangong - Pass Details

Date: 16 October 2021
Orbit: 380 x 384 km, 41.5° (Epoch: 02 December)

Event Time Altitude Azimuth Distance (km) Brightness Sun altitude
Rises 16:44:02 0° 204° (SSW) 2,254 5.3 -11.5°
Reaches altitude 10° 16:47:04 10° 171° (S) 1,402 3.8 -12.1°
Maximum altitude 16:48:24 12° 146° (SSE) 1,283 3.4 -12.3°
Enters shadow 16:48:50 12° 138° (SE) 1,296 3.3 -12.4°
